Time,TemperatureF,DewpointF,PressureIn,WindDirection,WindDirectionDegrees,WindSpeedMPH,WindSpeedGustMPH,Humidity,HourlyPrecipIn,Conditions,Clouds,dailyrainin,SolarRadiationWatts/m^2,SoftwareType,DateUTC
2013-05-07 00:02:00,34.0,34.0,30.28,NNW,329,6.0,10.0,99,0.04,,,0.17,0.000000,,2013-05-07 06:02:00,
2013-05-07 00:32:00,34.0,34.0,30.28,North,355,7.0,13.0,100,0.04,,,0.21,0.000000,,2013-05-07 06:32:00,
2013-05-07 00:42:00,34.0,34.0,30.28,North,355,7.0,13.0,100,0.04,,,0.21,0.000000,,2013-05-07 06:42:00,
2013-05-07 00:52:00,34.0,34.0,30.28,North,355,7.0,13.0,100,0.04,,,0.21,0.000000,,2013-05-07 06:52:00,
2013-05-07 01:02:00,34.0,34.0,30.28,North,355,7.0,13.0,100,0.04,,,0.21,0.000000,,2013-05-07 07:02:00,
2013-05-07 01:11:00,34.0,34.0,30.28,North,355,7.0,13.0,100,0.04,,,0.21,0.000000,,2013-05-07 07:11:00,
2013-05-07 01:42:00,34.0,34.0,30.28,NW,319,2.0,10.0,98,0.00,,,0.21,0.000000,,2013-05-07 07:42:00,
2013-05-07 01:52:00,34.0,34.0,30.28,NW,319,2.0,10.0,98,0.00,,,0.21,0.000000,,2013-05-07 07:52:00,
2013-05-07 02:02:00,34.0,34.0,30.28,NW,319,2.0,10.0,98,0.00,,,0.21,0.000000,,2013-05-07 08:02:00,
2013-05-07 02:11:00,34.0,34.0,30.28,NW,319,2.0,10.0,98,0.00,,,0.21,0.000000,,2013-05-07 08:11:00,
2013-05-07 02:32:00,35.0,34.0,30.28,West,264,7.0,14.0,96,0.00,,,0.21,0.000000,,2013-05-07 08:32:00,
2013-05-07 02:42:00,35.0,34.0,30.28,West,264,7.0,14.0,96,0.00,,,0.21,0.000000,,2013-05-07 08:42:00,
2013-05-07 02:52:00,35.0,34.0,30.28,West,264,7.0,14.0,96,0.00,,,0.21,0.000000,,2013-05-07 08:52:00,
2013-05-07 03:01:00,35.0,34.0,30.28,West,264,7.0,14.0,96,0.00,,,0.21,0.000000,,2013-05-07 09:01:00,
2013-05-07 03:11:00,35.0,34.0,30.28,West,264,7.0,14.0,96,0.00,,,0.21,0.000000,,2013-05-07 09:11:00,
2013-05-07 03:12:00,34.0,34.0,30.27,WNW,294,1.0,11.0,99,0.00,,,0.21,0.000000,,2013-05-07 09:12:00,
2013-05-07 03:33:00,34.0,34.0,30.27,WNW,294,1.0,11.0,99,0.00,,,0.21,0.000000,,2013-05-07 09:33:00,
2013-05-07 03:43:00,34.0,34.0,30.27,WNW,294,1.0,11.0,99,0.00,,,0.21,0.000000,,2013-05-07 09:43:00,
2013-05-07 03:52:00,34.0,34.0,30.27,WNW,294,1.0,11.0,99,0.00,,,0.21,0.000000,,2013-05-07 09:52:00,
2013-05-07 04:02:00,34.0,34.0,30.27,WNW,294,1.0,11.0,99,0.00,,,0.21,0.000000,,2013-05-07 10:02:00,
2013-05-07 04:32:00,34.0,34.0,30.26,NW,314,6.0,8.0,98,0.00,,,0.21,0.000000,,2013-05-07 10:32:00,
2013-05-07 04:42:00,34.0,34.0,30.26,NW,314,6.0,8.0,98,0.00,,,0.21,0.000000,,2013-05-07 10:42:00,
2013-05-07 04:52:00,34.0,34.0,30.26,NW,314,6.0,8.0,98,0.00,,,0.21,0.000000,,2013-05-07 10:52:00,
2013-05-07 05:02:00,34.0,34.0,30.26,NW,314,6.0,8.0,98,0.00,,,0.21,0.000000,,2013-05-07 11:02:00,
2013-05-07 05:11:00,34.0,34.0,30.26,NW,314,6.0,8.0,98,0.00,,,0.21,0.000000,,2013-05-07 11:11:00,
2013-05-07 05:32:00,33.0,32.0,30.27,WNW,282,3.0,8.0,95,0.00,,,0.21,0.000000,,2013-05-07 11:32:00,
2013-05-07 05:42:00,33.0,32.0,30.27,WNW,282,3.0,8.0,95,0.00,,,0.21,0.000000,,2013-05-07 11:42:00,
2013-05-07 05:52:00,33.0,32.0,30.27,WNW,282,3.0,8.0,95,0.00,,,0.21,0.000000,,2013-05-07 11:52:00,
2013-05-07 06:01:00,33.0,32.0,30.27,WNW,282,3.0,8.0,95,0.00,,,0.21,0.000000,,2013-05-07 12:01:00,
2013-05-07 06:11:00,33.0,32.0,30.27,WNW,282,3.0,8.0,95,0.00,,,0.21,0.000000,,2013-05-07 12:11:00,
2013-05-07 06:32:00,33.0,31.0,30.27,East,90,0.0,6.0,93,0.00,,,-99.99,0.000000,,2013-05-07 12:32:00,
2013-05-07 06:42:00,33.0,31.0,30.27,East,90,0.0,6.0,93,0.00,,,-99.99,0.000000,,2013-05-07 12:42:00,
2013-05-07 06:52:00,33.0,31.0,30.27,East,90,0.0,6.0,93,0.00,,,-99.99,0.000000,,2013-05-07 12:52:00,
2013-05-07 07:02:00,33.0,31.0,30.27,East,90,0.0,6.0,93,0.00,,,-99.99,0.000000,,2013-05-07 13:02:00,
2013-05-07 07:11:00,33.0,31.0,30.27,East,90,0.0,6.0,93,0.00,,,-99.99,0.000000,,2013-05-07 13:11:00,
2013-05-07 07:42:00,35.0,33.0,30.29,East,86,5.0,7.0,91,0.01,,,-99.99,20.000000,,2013-05-07 13:42:00,
2013-05-07 07:52:00,35.0,33.0,30.29,East,86,5.0,7.0,91,0.01,,,-99.99,20.000000,,2013-05-07 13:52:00,
2013-05-07 08:02:00,35.0,33.0,30.29,East,86,5.0,7.0,91,0.01,,,-99.99,20.000000,,2013-05-07 14:02:00,
2013-05-07 08:11:00,35.0,33.0,30.29,East,86,5.0,7.0,91,0.01,,,-99.99,20.000000,,2013-05-07 14:11:00,
2013-05-07 08:12:00,36.0,35.0,30.29,East,92,8.0,10.0,95,0.00,,,0.22,132.000000,,2013-05-07 14:12:00,
2013-05-07 08:42:00,36.0,35.0,30.29,East,92,8.0,10.0,95,0.00,,,0.22,132.000000,,2013-05-07 14:42:00,
2013-05-07 08:52:00,36.0,35.0,30.29,East,92,8.0,10.0,95,0.00,,,0.22,132.000000,,2013-05-07 14:52:00,
2013-05-07 09:01:00,36.0,35.0,30.29,East,92,8.0,10.0,95,0.00,,,0.22,132.000000,,2013-05-07 15:01:00,
2013-05-07 09:12:00,41.0,33.0,30.29,South,186,0.0,9.0,72,0.00,,,0.22,281.000000,,2013-05-07 15:12:00,
2013-05-07 09:33:00,41.0,33.0,30.29,South,186,0.0,9.0,72,0.00,,,0.22,281.000000,,2013-05-07 15:33:00,
2013-05-07 09:42:00,41.0,33.0,30.29,South,186,0.0,9.0,72,0.00,,,0.22,281.000000,,2013-05-07 15:42:00,
2013-05-07 09:53:00,41.0,33.0,30.29,South,186,0.0,9.0,72,0.00,,,0.22,281.000000,,2013-05-07 15:53:00,
2013-05-07 10:03:00,41.0,33.0,30.29,South,186,0.0,9.0,72,0.00,,,0.22,281.000000,,2013-05-07 16:03:00,
2013-05-07 12:42:00,48.0,30.0,30.27,WSW,248,1.0,8.0,50,-99.99,,,0.22,803.000000,,2013-05-07 18:42:00,
2013-05-07 12:52:00,48.0,30.0,30.27,WSW,248,1.0,8.0,50,-99.99,,,0.22,803.000000,,2013-05-07 18:52:00,
2013-05-07 13:02:00,48.0,30.0,30.27,WSW,248,1.0,8.0,50,-99.99,,,0.22,803.000000,,2013-05-07 19:02:00,
2013-05-07 13:11:00,48.0,30.0,30.27,WSW,248,1.0,8.0,50,-99.99,,,0.22,803.000000,,2013-05-07 19:11:00,
2013-05-07 14:42:00,45.0,29.0,30.26,SE,142,9.0,13.0,54,-99.99,,,-99.99,828.000000,,2013-05-07 20:42:00,
2013-05-07 14:52:00,45.0,29.0,30.26,SE,142,9.0,13.0,54,-99.99,,,-99.99,828.000000,,2013-05-07 20:52:00,
2013-05-07 15:01:00,45.0,29.0,30.26,SE,142,9.0,13.0,54,-99.99,,,-99.99,828.000000,,2013-05-07 21:01:00,
2013-05-07 15:11:00,45.0,29.0,30.26,SE,142,9.0,13.0,54,-99.99,,,-99.99,828.000000,,2013-05-07 21:11:00,
2013-05-07 15:12:00,42.0,31.0,30.28,East,91,2.0,14.0,66,0.00,,,0.22,153.000000,,2013-05-07 21:12:00,
2013-05-07 15:33:00,42.0,31.0,30.28,East,91,2.0,14.0,66,0.00,,,0.22,153.000000,,2013-05-07 21:33:00,
2013-05-07 15:43:00,42.0,31.0,30.28,East,91,2.0,14.0,66,0.00,,,0.22,153.000000,,2013-05-07 21:43:00,
2013-05-07 15:53:00,42.0,31.0,30.28,East,91,2.0,14.0,66,0.00,,,0.22,153.000000,,2013-05-07 21:53:00,
2013-05-07 16:02:00,42.0,31.0,30.28,East,91,2.0,14.0,66,0.00,,,0.22,153.000000,,2013-05-07 22:02:00,
2013-05-07 16:33:00,40.0,35.0,30.27,NNW,334,13.0,19.0,82,0.00,,,0.22,180.000000,,2013-05-07 22:33:00,
2013-05-07 16:42:00,40.0,35.0,30.27,NNW,334,13.0,19.0,82,0.00,,,0.22,180.000000,,2013-05-07 22:42:00,
2013-05-07 16:52:00,40.0,35.0,30.27,NNW,334,13.0,19.0,82,0.00,,,0.22,180.000000,,2013-05-07 22:52:00,
2013-05-07 17:02:00,40.0,35.0,30.27,NNW,334,13.0,19.0,82,0.00,,,0.22,180.000000,,2013-05-07 23:02:00,
2013-05-07 17:11:00,40.0,35.0,30.27,NNW,334,13.0,19.0,82,0.00,,,0.22,180.000000,,2013-05-07 23:11:00,
2013-05-07 17:32:00,45.0,31.0,30.27,West,274,4.0,18.0,57,0.00,,,0.22,603.000000,,2013-05-07 23:32:00,
2013-05-07 17:42:00,45.0,31.0,30.27,West,274,4.0,18.0,57,0.00,,,0.22,603.000000,,2013-05-07 23:42:00,
2013-05-07 17:52:00,45.0,31.0,30.27,West,274,4.0,18.0,57,0.00,,,0.22,603.000000,,2013-05-07 23:52:00,
2013-05-07 18:01:00,45.0,31.0,30.27,West,274,4.0,18.0,57,0.00,,,0.22,603.000000,,2013-05-08 00:01:00,
2013-05-07 18:11:00,45.0,31.0,30.27,West,274,4.0,18.0,57,0.00,,,0.22,603.000000,,2013-05-08 00:11:00,
2013-05-07 18:42:00,36.0,29.0,30.29,South,171,1.0,7.0,77,0.02,,,-99.99,70.000000,,2013-05-08 00:42:00,
2013-05-07 18:52:00,36.0,29.0,30.29,South,171,1.0,7.0,77,0.02,,,-99.99,70.000000,,2013-05-08 00:52:00,
2013-05-07 19:02:00,36.0,29.0,30.29,South,171,1.0,7.0,77,0.02,,,-99.99,70.000000,,2013-05-08 01:02:00,
2013-05-07 19:11:00,36.0,29.0,30.29,South,171,1.0,7.0,77,0.02,,,-99.99,70.000000,,2013-05-08 01:11:00,
2013-05-07 19:12:00,36.0,32.0,30.27,North,358,8.0,21.0,86,0.09,,,-99.99,90.000000,,2013-05-08 01:12:00,
2013-05-07 19:32:00,36.0,32.0,30.27,North,358,8.0,21.0,86,0.09,,,-99.99,90.000000,,2013-05-08 01:32:00,
2013-05-07 19:42:00,36.0,32.0,30.27,North,358,8.0,21.0,86,0.09,,,-99.99,90.000000,,2013-05-08 01:42:00,
2013-05-07 19:52:00,36.0,32.0,30.27,North,358,8.0,21.0,86,0.09,,,-99.99,90.000000,,2013-05-08 01:52:00,
2013-05-07 20:01:00,36.0,32.0,30.27,North,358,8.0,21.0,86,0.09,,,-99.99,90.000000,,2013-05-08 02:01:00,
2013-05-07 20:32:00,34.0,33.0,30.28,East,87,8.0,13.0,95,0.01,,,0.25,12.000000,,2013-05-08 02:32:00,
2013-05-07 20:42:00,34.0,33.0,30.28,East,87,8.0,13.0,95,0.01,,,0.25,12.000000,,2013-05-08 02:42:00,
2013-05-07 20:52:00,34.0,33.0,30.28,East,87,8.0,13.0,95,0.01,,,0.25,12.000000,,2013-05-08 02:52:00,
2013-05-07 21:01:00,34.0,33.0,30.28,East,87,8.0,13.0,95,0.01,,,0.25,12.000000,,2013-05-08 03:01:00,
2013-05-07 21:11:00,34.0,33.0,30.28,East,87,8.0,13.0,95,0.01,,,0.25,12.000000,,2013-05-08 03:11:00,
2013-05-07 21:12:00,35.0,34.0,30.29,ESE,109,17.0,20.0,97,0.01,,,0.25,0.000000,,2013-05-08 03:12:00,
2013-05-07 21:33:00,35.0,34.0,30.29,ESE,109,17.0,20.0,97,0.01,,,0.25,0.000000,,2013-05-08 03:33:00,
2013-05-07 21:43:00,35.0,34.0,30.29,ESE,109,17.0,20.0,97,0.01,,,0.25,0.000000,,2013-05-08 03:43:00,
2013-05-07 21:52:00,35.0,34.0,30.29,ESE,109,17.0,20.0,97,0.01,,,0.25,0.000000,,2013-05-08 03:52:00,
2013-05-07 22:02:00,35.0,34.0,30.29,ESE,109,17.0,20.0,97,0.01,,,0.25,0.000000,,2013-05-08 04:02:00,
2013-05-07 22:12:00,34.0,32.0,30.27,ESE,104,17.0,21.0,92,0.00,,,0.22,0.000000,,2013-05-08 04:12:00,
2013-05-07 22:43:00,34.0,32.0,30.27,ESE,104,17.0,21.0,92,0.00,,,0.22,0.000000,,2013-05-08 04:43:00,
2013-05-07 22:53:00,34.0,32.0,30.27,ESE,104,17.0,21.0,92,0.00,,,0.22,0.000000,,2013-05-08 04:53:00,
2013-05-07 23:02:00,34.0,32.0,30.27,ESE,104,17.0,21.0,92,0.00,,,0.22,0.000000,,2013-05-08 05:02:00,
2013-05-07 23:32:00,34.0,32.0,30.27,East,97,15.0,22.0,94,0.00,,,0.18,0.000000,,2013-05-08 05:32:00,
2013-05-07 23:42:00,34.0,32.0,30.27,East,97,15.0,22.0,94,0.00,,,0.18,0.000000,,2013-05-08 05:42:00,
2013-05-07 23:52:00,34.0,32.0,30.27,East,97,15.0,22.0,94,0.00,,,0.18,0.000000,,2013-05-08 05:52:00,